Weather History for Aruba, Aruba

Change the Weather History Date:

Thursday, September 5, 2013

  Actual Average Record
Temperature  
Mean Temperature 86 °F -  
Max Temperature 92 °F 90 °F 93 °F (1998)
Min Temperature 79 °F 79 °F 78 °F (2006)
Cooling Degree Days 20    
Growing Degree Days 36 (Base 50)    
Moisture  
Dew Point 78 °F    
Average Humidity 80    
Maximum Humidity 89    
Minimum Humidity 63    
Precipitation  
Precipitation 0.04 in - - ()
Sea Level Pressure  
Sea Level Pressure 29.83 in    
Wind  
Wind Speed 6 mph ()    
Max Wind Speed 26 mph    
Max Gust Speed 31 mph    
Visibility 6.0 miles    
Events Rain , Thunderstorm    
Averages and records for this station are not official NWS values.
T = Trace of Precipitation, MM = Missing Value Source: Averaged Metar Reports

Daily Weather History Graph

Daily Weather History Graph

Search for Another Location

Airport:

Trip Planner

Search our weather history database for the weather conditions in past years. The results will help you decide how hot, cold, wet, or windy it might be!

Date:

Astronomy

Sep. 05, 2013 Rise Set
Actual Time 6:29 AM AST 6:47 PM AST
Civil Twilight 6:07 AM AST 7:09 PM AST
Nautical Twilight 5:43 AM AST 7:33 PM AST
Astronomical Twilight 5:18 AM AST 7:58 PM AST
Moon 6:27 AM AST (9/5) 6:53 PM AST (9/5)
Length of Visible Light 13h 01m
Length of Day
12h 18m
New Moon, 0% of the Moon is Illuminated
Sep 5
New Moon
Sep 12
First Quarter
Sep 19
Full
Sep 26
Last Quarter
Oct 4
New

Hourly Weather History & Observations

Time (AST) Temp. Heat Index Dew Point Humidity Pressure Visibility Wind Dir Wind Speed Gust Speed Precip Events Conditions
12:00 AM 82.4 °F 90.9 °F 77.0 °F 84% 29.86 in 6.2 mi Variable 3.5 mph - N/A   Partly Cloudy
1:00 AM 82.4 °F 90.9 °F 77.0 °F 84% 29.86 in 6.2 mi Variable 1.2 mph - N/A   Partly Cloudy
2:00 AM 82 °F - 78 °F 86% 29.85 in 31 mi ESE 4.6 mph - - Rain Light Rain Showers
2:00 AM 82.4 °F 92.4 °F 78.8 °F 89% 29.83 in 6.2 mi ESE 4.6 mph - N/A   Partly Cloudy
3:00 AM 80.6 °F 87.1 °F 77.0 °F 89% 29.83 in 6.2 mi Variable 3.5 mph - N/A   Partly Cloudy
3:28 AM 80.6 °F 87.1 °F 77.0 °F 89% 29.83 in 6.2 mi Variable 3.5 mph - N/A Thunderstorm Thunderstorm
4:00 AM 80.6 °F 87.1 °F 77.0 °F 89% 29.83 in 6.2 mi Calm Calm - N/A   Partly Cloudy
5:00 AM 80 °F - 77 °F 89% 29.83 in 31 mi 2.3 mph - -   Scattered Clouds
5:00 AM 80.6 °F 87.1 °F 77.0 °F 89% 2.98 in 6.2 mi Variable 2.3 mph - N/A   Partly Cloudy
6:00 AM 80.6 °F 87.1 °F 77.0 °F 89% 29.83 in 6.2 mi Variable 1.2 mph - N/A   Partly Cloudy
7:00 AM 80.6 °F 87.1 °F 77.0 °F 89% 29.86 in 6.2 mi East 4.6 mph - N/A   Partly Cloudy
8:00 AM 82 °F - 78 °F 85% 29.88 in 31 mi 3.5 mph - -   Partly Cloudy
8:00 AM 82.4 °F 92.4 °F 78.8 °F 89% 29.86 in 6.2 mi Variable 3.5 mph - N/A   Partly Cloudy
9:00 AM 86.0 °F 99.3 °F 78.8 °F 79% 29.89 in 6.2 mi East 10.4 mph - N/A   Partly Cloudy
10:00 AM 89.6 °F 104.7 °F 78.8 °F 70% 29.89 in 6.2 mi East 9.2 mph - N/A   Partly Cloudy
11:00 AM 89 °F - 78 °F 63% 29.89 in 31 mi East 11.5 mph - -   Scattered Clouds
11:00 AM 89.6 °F 104.7 °F 78.8 °F 70% 29.89 in 6.2 mi East 11.5 mph - N/A   Partly Cloudy
12:00 PM 91.4 °F 107.2 °F 78.8 °F 66% 29.86 in 6.2 mi East 11.5 mph - N/A   Partly Cloudy
1:00 PM 89.6 °F 102.2 °F 77.0 °F 66% 29.83 in 6.2 mi East 13.8 mph 31.1 mph N/A   Partly Cloudy
2:00 PM - - 79 °F % 29.82 in 1 mi NNE 26.5 mph - -  
2:00 PM 89.6 °F 104.7 °F 78.8 °F 70% 29.80 in 6.2 mi East 13.8 mph - N/A   Partly Cloudy
3:00 PM 91.4 °F 107.2 °F 78.8 °F 66% 29.77 in 6.2 mi East 10.4 mph - N/A   Partly Cloudy
4:00 PM 91.4 °F 107.2 °F 78.8 °F 66% 29.74 in 6.2 mi ENE 12.7 mph - N/A   Partly Cloudy
5:00 PM 89 °F - 79 °F 67% 29.77 in 25 mi ENE 11.5 mph - -   Scattered Clouds
5:00 PM 89.6 °F 104.7 °F 78.8 °F 70% 29.74 in 6.2 mi ENE 11.5 mph - N/A   Partly Cloudy
6:00 PM 87.8 °F 102.5 °F 78.8 °F 75% 29.74 in 6.2 mi NE 10.4 mph - N/A   Partly Cloudy
7:00 PM 86.0 °F 101.9 °F 80.6 °F 84% 29.77 in 6.2 mi ENE 13.8 mph - N/A   Partly Cloudy
8:00 PM 85 °F - 80 °F 80% 29.81 in 25 mi ENE 13.8 mph - -   Scattered Clouds
8:00 PM 84.2 °F 98.3 °F 80.6 °F 89% 29.80 in 6.2 mi ENE 13.8 mph - N/A   Partly Cloudy
9:00 PM 84.2 °F 98.3 °F 80.6 °F 89% 29.83 in 6.2 mi ENE 12.7 mph - N/A   Partly Cloudy
10:00 PM 84.2 °F 96.1 °F 78.8 °F 84% 29.86 in 6.2 mi ENE 11.5 mph - N/A   Partly Cloudy
11:00 PM 84 °F - 80 °F 83% 29.87 in 25 mi ENE 10.4 mph - -   Scattered Clouds
11:00 PM 84.2 °F 96.1 °F 78.8 °F 84% 29.86 in 6.2 mi ENE 10.4 mph - N/A   Partly Cloudy